Find Starlink 37258

NORAD ID: 68951 Int'l Des: 2026-099 Owner: SPXS Country: US Constellation: starlink operational
LEOCIRCULAR

实时位置

正在加载3D地球...

关于 Starlink 37258

正在加载描述...

即将过境

Passes for default location (London). Set your location on the main map for personalized predictions.

高度历史

Loading altitude history...

两行轨道根数

1 68951C 26099A 26125.84562500 -.01534100 00000+0 -27949-2 0 1250
2 68951 53.1616 7.2194 0000499 71.6711 205.7506 16.01461315 15
Epoch: May 5, 2026 • Age: 30 hours

当前状态

高度 274.1 km
速度 7.75 km/s
星下点 12.05°N, 142.93°W
发射日期 May 1, 2026
运行时间 4 days
类型 internet

技术详情

分类 Payload
质量 575.00 kg
干质量 530.00 kg
总质量 575.00 kg
长度 0.30 m
直径 4.10 m
跨度 29.00 m
形状 Box + pan
制造商 SPXS
平台类型 Starlink V2MO
阶段状态 In Orbit
所有者/国家 SPXS/US

Most Searched